Stations météo

Publicité
Gueret-St Laurent, France (7361): Température de l'air & dewpoint: 02.07.2020 23:00:00 - 08.07.2020 23:00:00 (CEST)Gueret-St Laurent, France (7361): Température de l'air 5cm: 02.07.2020 23:00:00 - 08.07.2020 23:00:00 (CEST)Gueret-St Laurent, France (7361): Température de l'air -20cm & Température de l'air -100cm: 02.07.2020 23:00:00 - 08.07.2020 23:00:00 (CEST)Gueret-St Laurent, France (7361): Vitesse du vent & gusts: 02.07.2020 23:00:00 - 08.07.2020 23:00:00 (CEST)Gueret-St Laurent, France (7361): Direction du vent: 02.07.2020 23:00:00 - 08.07.2020 23:00:00 (CEST)Gueret-St Laurent, France (7361): reduced air pressure: 02.07.2020 23:00:00 - 08.07.2020 23:00:00 (CEST)Gueret-St Laurent, France (7361): visibility: 02.07.2020 23:00:00 - 08.07.2020 23:00:00 (CEST)Gueret-St Laurent, France (7361): Ensoleillement: 02.07.2020 23:00:00 - 08.07.2020 23:00:00 (CEST)Gueret-St Laurent, France (7361): Quantités de précipitations: 02.07.2020 23:00:00 - 08.07.2020 23:00:00 (CEST)
Date & Time tt [°C] td [°C] tt 5cm [°C] tt -20cm [°C] tt -100cm [°C] ff [km/h] ff [knt] fx [km/h] fx [knt] dd ppp [hPa] vv [km] sd [min] rr [mm]
08.07.2020 23:00:00 17,4 12,5 12,5 19,5 17,2 0 0 7 4 N 1017,9 20 0 0,0
08.07.2020 22:00:00 20,2 12,7 14,6 19,4 17,3 0 0 10 6 N 1016,7 7 0 0,0
08.07.2020 21:00:00 24,2 12,2 19,0 19,3 17,2 6 3 14 8 N 1016,1 20 43 0,0
08.07.2020 20:00:00 26,9 11,0 26,0 19,2 17,3 11 6 18 10 N 1015,9 20 60 0,0
08.07.2020 19:00:00 27,6 11,6 28,2 19,1 17,2 10 5 19 11 N 1016,1 20 60 0,0
08.07.2020 18:00:00 28,0 11,5 30,4 19,0 17,2 11 6 19 11 NNE 1016,4 19 60 0,0
08.07.2020 17:00:00 28,1 11,2 32,8 18,9 17,2 11 6 18 10 ENE 1016,8 20 60 0,0
08.07.2020 16:00:00 27,8 10,9 39,1 18,9 17,2 10 5 19 10 ENE 1017,2 20 60 0,0
08.07.2020 15:00:00 26,8 10,5 42,0 18,9 17,2 8 4 20 11 NE 1017,6 19 60 0,0
08.07.2020 14:00:00 26,0 11,0 41,9 18,9 17,2 9 5 20 11 ENE 1017,8 20 60 0,0
08.07.2020 13:00:00 25,8 11,2 38,2 19,0 17,2 4 2 18 10 N 1018,1 20 60 0,0
08.07.2020 12:00:00 24,2 9,4 32,5 19,0 17,2 8 5 16 9 NE 1018,7 20 60 0,0
08.07.2020 11:00:00 22,8 10,6 28,8 19,1 17,2 4 2 14 8 NE 1018,7 20 60 0,0
08.07.2020 10:00:00 19,9 11,1 19,0 19,2 17,2 3 2 10 6 E 1019,1 20 60 0,0
08.07.2020 09:00:00 15,1 10,5 13,8 19,3 17,2 6 3 10 5 E 1019,6 20 55 0,0
08.07.2020 08:00:00 11,7 9,6 8,0 19,3 17,2 6 3 13 7 ESE 1020,2 20 60 0,0
08.07.2020 07:00:00 8,6 8,2 3,8 19,4 17,2 7 4 12 6 E 1020,6 20 25 0,0
08.07.2020 06:00:00 6,9 6,5 4,0 19,5 17,2 5 3 7 4 ESE 1020,8 20 0 0,0
08.07.2020 05:00:00 7,6 7,0 4,5 19,5 17,2 3 1 5 3 ESE 1020,6 12 0 0,0
08.07.2020 04:00:00 8,4 7,8 4,7 19,5 17,2 3 2 8 5 ENE 1020,9 4,6 0 0,0
08.07.2020 03:00:00 9,3 8,7 5,6 19,6 17,2 3 2 7 4 ESE 1021,1 20 0 0,0
08.07.2020 02:00:00 10,3 9,5 6,3 19,6 17,2 4 2 5 3 E 1020,9 20 0 0,0
08.07.2020 01:00:00 11,0 9,4 7,6 19,5 17,2 0 0 4 2 N 1020,8 20 0 0,0
08.07.2020 00:00:00 12,2 10,4 8,9 19,5 17,2 0 0 5 3 N 1020,8 20 0 0,0
07.07.2020 23:00:00 13,9 10,9 10,2 19,4 17,2 2 1 4 2 S 1020,2 20 0 0,0
07.07.2020 22:00:00 16,5 10,1 11,6 19,3 17,2 0 0 6 3 N 1019,6 7 1 0,0
07.07.2020 21:00:00 21,3 10,5 18,0 19,2 17,2 2 1 11 6 NNW 1018,5 20 42 0,0
07.07.2020 20:00:00 20,9 9,2 20,0 19,2 17,2 4 2 16 9 NNW 1018,7 20 0 0,0
07.07.2020 19:00:00 22,1 8,9 22,4 19,1 17,2 11 6 20 11 N 1018,4 20 41 0,0
07.07.2020 18:00:00 23,9 7,9 27,6 19,0 17,2 10 6 22 12 N 1018,4 16 60 0,0
07.07.2020 17:00:00 23,8 7,8 29,9 19,0 17,2 11 6 22 12 NNW 1019,0 20 60 0,0
07.07.2020 16:00:00 23,2 8,5 35,4 19,0 17,2 13 7 23 12 N 1019,2 20 60 0,0
07.07.2020 15:00:00 23,0 8,7 37,7 19,0 17,2 11 6 26 14 NNE 1019,6 18 60 0,0
07.07.2020 14:00:00 21,9 7,7 38,7 19,0 17,2 10 5 24 13 NNE 1020,2 19 60 0,0
07.07.2020 13:00:00 21,3 7,9 34,1 19,1 17,2 9 5 24 13 NNE 1020,6 19 60 0,0
07.07.2020 12:00:00 20,6 9,5 29,7 19,2 17,2 8 4 21 11 NNE 1020,9 20 60 0,0
07.07.2020 11:00:00 19,0 10,0 25,5 19,3 17,2 4 2 12 7 SSE 1021,4 20 60 0,0
07.07.2020 10:00:00 16,1 10,0 17,2 19,4 17,2 3 2 6 3 S 1022,1 20 60 0,0
07.07.2020 09:00:00 12,8 9,8 10,4 19,5 17,2 0 0 5 3 N 1022,6 20 60 0,0
07.07.2020 08:00:00 8,9 8,4 3,7 19,6 17,2 4 2 6 3 E 1023,2 20 60 0,0
07.07.2020 07:00:00 5,5 5,2 1,6 19,7 17,2 2 1 5 3 ESE 1023,7 18 25 0,0
07.07.2020 06:00:00 5,1 4,7 1,7 19,7 17,2 0 0 3 2 N 1023,5 1,5 0 0,0
07.07.2020 05:00:00 5,6 5,0 2,3 19,8 17,2 0 0 5 3 N 1023,7 19 0 0,0
07.07.2020 04:00:00 6,2 5,6 2,8 19,9 17,2 0 0 5 3 N 1023,8 16 0 0,0
07.07.2020 03:00:00 6,7 6,0 3,3 19,9 17,2 0 0 3 2 N 1024,1 1,1 0 0,0
07.07.2020 02:00:00 7,8 7,2 4,2 19,9 17,2 3 2 4 2 SE 1024,0 2,1 0 0,0
07.07.2020 01:00:00 8,4 7,3 5,1 19,9 17,2 0 0 0 0 N 1024,1 20 0 0,0
07.07.2020 00:00:00 9,6 7,5 6,0 19,9 17,2 0 0 4 2 N 1024,2 20 0 0,0
06.07.2020 23:00:00 11,4 8,1 7,3 19,8 17,2 0 0 7 4 N 1024,0 20 0 0,0
06.07.2020 22:00:00 14,2 8,6 10,2 19,8 17,2 4 2 10 5 NW 1023,1 7 0 0,0
06.07.2020 21:00:00 18,2 7,6 15,5 19,7 17,2 6 3 23 13 NNW 1022,2 20 46 0,0
06.07.2020 20:00:00 19,5 7,9 20,2 19,6 17,1 14 7 27 15 N 1021,9 20 58 0,0
06.07.2020 19:00:00 20,4 8,7 23,1 19,5 17,1 11 6 23 13 NNW 1021,6 20 60 0,0
06.07.2020 18:00:00 20,8 9,1 24,8 19,5 17,1 10 5 26 14 NW 1021,6 20 60 0,0
06.07.2020 17:00:00 20,6 8,6 26,4 19,4 17,1 10 6 24 13 NNW 1021,8 19 57 0,0
06.07.2020 16:00:00 20,5 8,5 31,6 19,4 17,1 10 6 27 15 WNW 1021,7 20 60 0,0
06.07.2020 15:00:00 20,6 10,1 30,9 19,4 17,0 10 5 24 13 NW 1021,6 20 57 0,0
06.07.2020 14:00:00 19,5 10,2 28,8 19,4 17,2 9 5 23 12 WNW 1021,7 20 55 0,0
06.07.2020 13:00:00 19,3 9,8 25,6 19,4 17,1 10 5 21 12 W 1021,9 20 53 0,0
06.07.2020 12:00:00 18,4 10,5 23,0 19,5 17,1 10 6 24 13 NNW 1022,1 20 46 0,0
06.07.2020 11:00:00 17,0 11,0 17,1 19,5 17,2 8 4 23 12 NNW 1022,2 19 28 0,0
06.07.2020 10:00:00 15,5 10,9 16,9 19,5 17,1 9 5 20 11 NW 1022,2 20 39 0,0
06.07.2020 09:00:00 15,6 12,2 15,0 19,5 17,1 14 7 25 13 N 1021,9 20 29 0,0
06.07.2020 08:00:00 15,9 14,1 15,4 19,6 17,1 8 4 18 10 NW 1021,4 20 14 0,0
06.07.2020 07:00:00 15,2 14,2 15,4 19,6 17,2 6 3 18 10 NW 1021,0 20 0 0,2
06.07.2020 06:00:00 15,8 15,0 15,6 19,6 17,1 3 2 9 5 WNW 1020,4 6 0 0,2
06.07.2020 05:00:00 16,0 15,0 15,9 19,6 17,1 4 2 18 10 W 1020,3 20 0 0,2
06.07.2020 04:00:00 16,8 15,3 16,3 19,6 17,1 6 4 21 12 W 1020,2 20 0 0,0
06.07.2020 03:00:00 17,7 15,3 17,2 19,6 17,1 7 4 22 12 W 1020,3 20 0 0,0
06.07.2020 02:00:00 17,9 15,7 17,1 19,6 17,1 10 5 24 13 W 1020,4 20 0 0,0
06.07.2020 01:00:00 18,1 16,3 12,6 19,6 17,1 10 5 25 14 W 1020,3 20 0 0,0
06.07.2020 00:00:00 17,8 16,0 12,5 19,6 17,1 4 2 13 7 W 1020,3 20 0 0,0
05.07.2020 23:00:00 17,3 15,3 12,8 19,5 17,1 3 2 8 4 SSW 1020,2 20 0 0,0
05.07.2020 22:00:00 19,5 16,3 15,1 19,5 17,1 4 2 9 5 SW 1019,7 7 0 0,0
05.07.2020 21:00:00 22,1 16,6 19,2 19,3 17,1 4 2 14 8 W 1019,2 20 41 0,0
05.07.2020 20:00:00 23,4 16,7 22,9 19,3 17,1 8 4 21 12 WSW 1018,9 20 60 0,0
05.07.2020 19:00:00 24,1 16,4 25,2 19,2 17,1 11 6 24 13 W 1019,2 20 60 0,0
05.07.2020 18:00:00 24,6 16,6 27,0 19,2 17,2 9 5 24 13 W 1019,4 17 58 0,0
05.07.2020 17:00:00 24,3 17,3 26,9 19,1 17,1 10 6 24 13 W 1019,8 20 33 0,0
05.07.2020 16:00:00 23,8 16,8 28,4 19,2 17,1 8 4 23 12 WSW 1020,3 18 25 0,0
05.07.2020 15:00:00 22,8 16,8 28,0 19,2 17,1 10 6 26 14 SW 1020,6 20 19 0,0
05.07.2020 14:00:00 21,5 17,1 26,0 19,2 17,1 10 5 26 14 SSW 1021,3 20 6 0,0
05.07.2020 13:00:00 20,4 16,4 23,6 19,2 17,1 10 5 23 12 SW 1021,8 20 0 0,0
05.07.2020 12:00:00 19,8 15,6 22,2 19,2 17,1 10 5 19 10 WSW 1021,9 20 0 0,0
05.07.2020 11:00:00 19,4 15,5 21,0 19,3 17,1 6 4 17 9 WSW 1022,0 20 0 0,0
05.07.2020 10:00:00 18,6 14,9 19,2 19,3 17,1 5 3 17 9 W 1022,1 20 0 0,0
05.07.2020 09:00:00 17,6 14,5 17,8 19,3 17,1 6 4 16 8 SSW 1021,9 20 0 0,0
05.07.2020 08:00:00 17,0 13,1 16,1 19,3 17,1 4 2 13 7 SSW 1021,7 20 16 0,0
05.07.2020 07:00:00 16,5 13,2 13,8 19,4 17,1 6 4 18 10 SW 1021,8 20 0 0,0
05.07.2020 06:00:00 14,8 13,0 12,9 19,4 17,1 0 0 10 5 N 1022,1 20 0 0,0
05.07.2020 05:00:00 16,4 12,9 14,2 19,4 17,1 6 3 15 8 S 1021,7 20 0 0,0
05.07.2020 04:00:00 16,7 13,4 13,5 19,4 17,1 6 3 12 6 SSW 1022,1 20 0 0,0
05.07.2020 03:00:00 15,0 13,4 13,3 19,4 17,1 2 1 8 5 W 1022,9 20 0 0,0
05.07.2020 02:00:00 14,5 13,2 12,6 19,4 17,1 4 2 7 4 E 1023,3 20 0 0,0
05.07.2020 01:00:00 15,2 13,4 13,1 19,3 17,1 2 1 7 4 SSE 1023,2 20 0 0,0
05.07.2020 00:00:00 17,3 13,4 13,5 19,3 17,1 4 2 13 7 SW 1022,8 20 0 0,0
04.07.2020 23:00:00 17,3 13,4 13,6 19,2 17,1 4 2 8 5 SW 1022,8 20 0 0,0
04.07.2020 22:00:00 19,2 13,6 16,6 19,2 17,1 5 3 14 8 SW 1022,2 16 11 0,0
04.07.2020 21:00:00 21,0 13,7 18,9 19,1 17,1 5 3 19 10 WSW 1021,7 20 41 0,0
04.07.2020 20:00:00 21,4 13,6 20,7 19,0 17,1 6 4 23 12 WSW 1021,5 20 20 0,0
04.07.2020 19:00:00 23,3 14,0 24,0 18,9 17,1 6 3 25 14 WSW 1021,0 20 56 0,0
04.07.2020 18:00:00 23,7 13,6 24,9 18,9 17,1 10 5 22 12 WSW 1021,3 20 51 0,0
04.07.2020 17:00:00 23,9 13,7 27,9 18,8 17,1 8 5 29 16 WSW 1021,3 20 60 0,0
04.07.2020 16:00:00 23,2 13,9 32,4 18,8 17,1 10 5 23 13 SW 1021,4 20 60 0,0
04.07.2020 15:00:00 22,4 12,6 34,3 18,8 17,1 10 6 25 14 SW 1021,9 20 60 0,0
04.07.2020 14:00:00 21,4 12,8 34,9 18,8 17,1 12 7 26 14 SW 1022,3 20 60 0,0
04.07.2020 13:00:00 21,0 12,7 33,0 18,8 17,1 6 3 22 12 SW 1022,6 20 57 0,0
04.07.2020 12:00:00 19,5 11,8 29,4 18,9 17,1 9 5 18 10 SSW 1023,0 20 56 0,0
04.07.2020 11:00:00 18,1 11,4 21,0 18,9 17,1 6 3 19 10 SSW 1023,4 20 53 0,0
04.07.2020 10:00:00 16,2 11,4 17,2 19,0 17,1 6 3 18 10 W 1023,9 20 33 0,0
04.07.2020 09:00:00 15,4 11,8 14,0 19,1 17,1 2 1 7 4 NE 1023,8 20 45 0,0
04.07.2020 08:00:00 13,0 11,4 7,8 19,1 17,1 2 1 6 3 NE 1023,9 20 60 0,0
04.07.2020 07:00:00 9,0 8,7 4,3 19,2 17,2 3 1 3 2 ESE 1024,2 11 27 0,0
04.07.2020 06:00:00 8,5 7,9 4,5 19,2 17,1 0 0 5 3 N 1024,3 0,7 0 0,0
04.07.2020 05:00:00 9,4 8,5 5,2 19,2 17,1 0 0 4 2 N 1024,0 13 0 0,0
04.07.2020 04:00:00 10,7 9,3 6,4 19,3 17,1 0 0 8 4 N 1024,1 20 0 0,0
04.07.2020 03:00:00 12,3 10,5 9,4 19,2 17,1 2 1 7 4 NW 1024,1 20 0 0,0
04.07.2020 02:00:00 13,0 10,9 11,6 19,3 17,1 0 0 3 2 N 1024,0 20 0 0,0
04.07.2020 01:00:00 13,7 11,2 13,4 19,3 17,1 2 1 5 3 SE 1023,7 20 0 0,0
04.07.2020 00:00:00 13,7 11,2 12,6 19,2 17,1 3 1 6 3 E 1023,5 20 0 0,0
03.07.2020 23:00:00 13,6 11,1 10,3 19,2 17,1 3 2 5 3 SE 1023,3 20 0 0,0
03.07.2020 22:00:00 14,3 9,7 10,6 19,1 17,1 3 1 7 4 SSW 1022,4 1,4 0 0,0
03.07.2020 21:00:00 18,3 9,9 14,8 19,1 17,1 4 2 19 10 W 1021,6 20 43 0,0
03.07.2020 20:00:00 20,3 10,7 19,1 19,0 17,1 7 4 21 11 W 1021,0 20 34 0,0
03.07.2020 19:00:00 20,4 10,5 20,7 19,0 17,1 9 5 23 12 WNW 1021,0 20 46 0,0
03.07.2020 18:00:00 19,8 10,5 22,1 19,0 17,1 8 4 23 13 WNW 1021,2 20 20 0,0
03.07.2020 17:00:00 20,6 10,4 23,5 18,9 17,1 9 5 20 11 NW 1021,1 20 36 0,0
03.07.2020 16:00:00 19,5 10,2 23,3 18,9 17,1 8 4 21 11 NW 1021,5 20 4 0,0
03.07.2020 15:00:00 19,5 9,4 25,7 18,9 17,1 9 5 23 13 WNW 1021,6 20 24 0,0
03.07.2020 14:00:00 19,0 9,2 23,4 19,0 17,1 8 4 21 12 WNW 1021,9 20 29 0,0
03.07.2020 13:00:00 19,4 10,1 24,3 19,0 17,1 9 5 18 10 NW 1021,8 20 45 0,0
03.07.2020 12:00:00 18,3 10,4 25,4 19,0 17,1 8 4 21 11 NNW 1022,0 20 46 0,0
03.07.2020 11:00:00 17,5 9,6 22,3 19,1 17,1 8 5 21 11 W 1022,1 20 54 0,0
03.07.2020 10:00:00 16,6 11,9 18,4 19,1 17,1 5 3 18 10 WNW 1022,2 20 48 0,0
03.07.2020 09:00:00 14,5 11,3 14,3 19,2 17,1 7 4 11 6 NW 1022,4 20 60 0,0
03.07.2020 08:00:00 12,7 12,2 6,7 19,3 17,1 0 0 2 1 N 1022,5 20 56 0,2
03.07.2020 07:00:00 9,1 8,6 5,8 19,4 17,1 0 0 3 1 N 1022,8 16 6 0,0
03.07.2020 06:00:00 9,5 8,9 6,8 19,4 17,1 0 0 4 2 N 1022,4 16 0 0,0
03.07.2020 05:00:00 9,7 9,2 7,3 19,5 17,1 0 0 4 2 N 1022,1 16 0 0,0
03.07.2020 04:00:00 10,2 9,7 9,0 19,5 17,1 0 0 3 1 N 1021,8 20 0 0,0
03.07.2020 03:00:00 9,7 9,1 7,4 19,6 17,1 0 0 3 2 N 1021,9 19 0 0,0
03.07.2020 02:00:00 10,0 9,4 7,0 19,6 17,1 0 0 5 3 N 1021,7 17 0 0,0
03.07.2020 01:00:00 10,4 9,6 7,0 19,6 17,1 0 0 4 2 N 1021,5 16 0 0,0
03.07.2020 00:00:00 11,4 10,3 7,5 19,6 17,1 2 1 4 2 ESE 1021,0 16 0 0,0
02.07.2020 23:00:00 12,9 10,8 8,8 19,6 17,1 3 1 8 4 E 1020,0 20 0 0,0

tt = Température de l'air
td = dewpoint
tt 5cm = Température de l'air 5cm
tt -20cm = Température de l'air -20cm
tt -100cm = Température de l'air -100cm
ff = Vitesse du vent
fx = gusts
dd = Direction du vent
ppp = reduced air pressure
vv = visibility
sd = Ensoleillement
rr = Quantités de précipitations

stations d'obs. à proximité